FW2654 Weather Reports


Display with metric or nautical units.
time (UTC)temp
F
wind
direction
speed
MPH
gust
MPH
rain 1hr
in
rain 24hr
in
rain mn
in
humidity
%
barometer
mb
20260505023614 67 202 0.0 0.0 0.00 0.00 0.00 60 1005.2
20260505023109 68 203 0.0 0.0 0.00 0.00 0.00 60 1005.2
20260505022602 68 146 0.0 0.0 0.00 0.00 0.00 60 1005.2
20260505022056 68 110 0.0 0.0 0.00 0.00 0.00 59 1005.1
20260505021812 68 155 0.0 0.0 0.00 0.00 0.00 59 1005.1
20260505021045 68 129 0.0 0.0 0.00 0.00 0.00 59 1005.0
20260505020538 68 199 0.0 0.0 0.00 0.00 0.00 59 1004.9
20260505020033 68 199 0.0 0.0 0.00 0.00 0.00 58 1004.9
20260505015749 69 177 0.0 0.0 0.00 0.00 0.00 58 1004.9
20260505015021 69 173 0.0 0.0 0.00 0.00 0.00 58 1004.9
20260505014515 69 177 0.0 0.0 0.00 0.00 0.00 57 1004.9
20260505014008 69 150 0.0 0.0 0.00 0.00 0.00 57 1004.8
20260505013721 69 136 0.0 0.0 0.00 0.00 0.00 56 1004.8
20260505012956 69 131 0.0 0.0 0.00 0.00 0.00 55 1004.8
20260505012451 70 159 0.0 0.0 0.00 0.00 0.00 55 1004.7
20260505011944 70 152 0.0 0.0 0.00 0.00 0.00 54 1004.7
20260505011439 70 128 0.0 0.0 0.00 0.00 0.00 54 1004.6
20260505010932 70 134 0.0 0.0 0.00 0.00 0.00 53 1004.6
20260505010649 71 101 0.0 0.0 0.00 0.00 0.00 53 1004.6
20260505005921 71 333 0.0 0.0 0.00 0.00 0.00 52 1004.5
20260505005414 71 157 0.0 0.0 0.00 0.00 0.00 52 1004.5
20260505004909 71 136 0.0 0.0 0.00 0.00 0.00 51 1004.5
20260505004631 72 169 0.0 0.0 0.00 0.00 0.00 50 1004.5
20260505003857 72 90 0.0 0.0 0.00 0.00 0.00 50 1004.5
20260505003351 72 38 0.0 0.0 0.00 0.00 0.00 49 1004.5
20260505002844 73 305 0.0 0.0 0.00 0.00 0.00 49 1004.5
20260505002338 73 19 0.0 0.0 0.00 0.00 0.00 48 1004.6
20260505002317 73 296 0.0 0.0 0.00 0.00 0.00 48 1004.6
20260505001606 73 86 0.0 0.0 0.00 0.00 0.00 48 1004.7
20260505000835 73 5 0.0 0.0 0.00 0.00 0.00 48 1004.7
20260505000332 74 311 0.0 0.0 0.00 0.00 0.00 47 1004.7
20260504235832 74 256 0.0 0.0 0.00 0.00 0.00 46 1004.8
20260504235333 74 347 0.0 0.0 0.00 0.00 0.00 46 1004.7
20260504234833 74 225 0.0 0.0 0.00 0.00 0.00 46 1004.8
20260504234333 74 273 0.0 0.0 0.00 0.00 0.00 46 1005.0
20260504233832 75 237 0.0 0.0 0.00 0.00 0.00 45 1005.0
20260504233330 75 84 0.0 0.0 0.00 0.00 0.00 45 1005.1
20260504232830 75 284 0.0 0.0 0.00 0.00 0.00 45 1005.0
20260504232329 75 273 0.0 0.0 0.00 0.00 0.00 45 1004.9
20260504231825 75 189 0.0 0.0 0.00 0.00 0.00 45 1004.9
20260504231545 75 163 0.0 0.0 0.00 0.00 0.00 46 1004.9
20260504230825 74 299 0.0 0.0 0.00 0.00 0.00 50 1005.1
20260504230556 74 270 0.0 0.0 0.00 0.00 0.00 52 1005.0
20260504230024 74 156 0.0 0.0 0.00 0.00 0.00 52 1005.1
20260504225912 74 182 0.0 0.0 0.00 0.00 0.00 53 1005.1
20260504224815 74 95 0.0 0.0 0.00 0.00 0.00 52 1005.2
20260504224310 74 35 0.0 0.0 0.00 0.00 0.00 52 1005.2
20260504223809 75 103 0.0 0.0 0.00 0.00 0.00 51 1005.3
20260504223310 75 328 0.0 0.0 0.00 0.00 0.00 51 1005.5
20260504223036 75 82 0.0 0.0 0.00 0.00 0.00 50 1005.4
20260504222307 75 123 0.0 0.0 0.00 0.00 0.00 50 1005.4
20260504222030 75 277 0.0 0.0 0.00 0.00 0.00 49 1005.3
20260504221308 75 159 0.0 0.0 0.00 0.00 0.00 49 1005.3
20260504221032 75 305 0.0 0.0 0.00 0.00 0.00 50 1005.3
20260504220309 75 165 0.0 0.0 0.00 0.00 0.00 50 1005.2
20260504215806 75 200 0.0 0.0 0.00 0.00 0.00 50 1005.7
20260504215307 75 288 0.0 0.0 0.00 0.00 0.00 50 1005.9
20260504214806 74 225 0.0 0.0 0.00 0.00 0.00 48 1005.9
20260504214538 75 258 0.0 0.0 0.00 0.00 0.00 49 1005.9
20260504214025 75 259 0.0 0.0 0.00 0.00 0.00 48 1005.9
20260504213523 75 192 0.0 0.0 0.00 0.00 0.00 48 1006.0
20260504212803 76 277 0.0 0.0 0.00 0.00 0.00 50 1006.0
20260504212304 75 199 0.0 0.0 0.00 0.00 0.00 49 1006.0
20260504211802 75 194 0.0 0.0 0.00 0.00 0.00 50 1006.1
20260504211301 75 228 0.0 0.0 0.00 0.00 0.00 50 1006.2
20260504210802 74 252 0.0 0.0 0.00 0.00 0.00 50 1006.4
20260504210301 74 263 0.0 0.0 0.00 0.00 0.00 51 1006.4
20260504205803 74 138 0.0 0.0 0.00 0.00 0.00 51 1006.4
20260504205304 74 274 0.0 0.0 0.00 0.00 0.00 49 1006.4
20260504204801 74 123 0.0 0.0 0.00 0.00 0.00 51 1006.5
20260504204306 74 220 0.0 0.0 0.00 0.00 0.00 50 1006.6
20260504203805 74 279 0.0 0.0 0.00 0.00 0.00 50 1006.8
20260504203305 74 166 0.0 0.0 0.00 0.00 0.00 50 1006.7
20260504202805 75 284 0.0 0.0 0.00 0.00 0.00 49 1006.7
20260504202304 76 294 0.0 0.0 0.00 0.00 0.00 48 1006.6
20260504201802 76 146 0.0 0.0 0.00 0.00 0.00 50 1006.7
20260504201302 75 317 0.0 0.0 0.00 0.00 0.00 51 1006.7
20260504200802 74 258 0.0 0.0 0.00 0.00 0.00 53 1006.8
20260504200301 74 203 0.0 0.0 0.00 0.00 0.00 53 1006.8
20260504195802 73 151 0.0 0.0 0.00 0.00 0.00 55 1006.9
20260504195304 72 138 0.0 0.0 0.00 0.00 0.00 58 1007.1
20260504194803 72 122 0.0 0.0 0.00 0.00 0.00 58 1007.3
20260504194302 71 222 0.0 0.0 0.00 0.00 0.00 59 1007.4
20260504193801 71 244 0.0 0.0 0.00 0.00 0.00 59 1007.7
20260504193302 70 86 0.0 0.0 0.00 0.00 0.00 60 1007.5
20260504192801 70 87 0.0 0.0 0.00 0.00 0.00 60 1007.3
20260504192301 69 344 0.0 0.0 0.00 0.00 0.00 61 1008.1
20260504191754 69 351 0.0 0.0 0.00 0.00 0.00 61 1008.3
20260504191255 69 28 0.0 0.0 0.00 0.00 0.00 62 1008.0
20260504190752 69 355 0.0 0.0 0.00 0.00 0.00 61 1008.3
20260504190253 68 77 0.0 0.0 0.00 0.00 0.00 60 1008.4
20260504185753 69 175 0.0 0.0 0.00 0.00 0.00 60 1008.6
20260504185252 69 327 0.0 0.0 0.00 0.00 0.00 60 1008.4
20260504184752 69 220 0.0 0.0 0.00 0.00 0.00 59 1008.4
20260504184250 69 80 0.0 0.0 0.00 0.00 0.00 58 1008.3
20260504183750 69 221 0.0 0.0 0.00 0.00 0.00 58 1008.2
20260504183248 70 234 0.0 0.0 0.00 0.00 0.00 58 1008.1
20260504182748 70 152 0.0 0.0 0.00 0.00 0.00 57 1007.9
20260504182249 70 331 0.0 0.0 0.00 0.00 0.00 58 1007.8
20260504181747 71 149 0.0 0.0 0.00 0.00 0.00 56 1007.5
20260504181249 71 140 0.0 0.0 0.00 0.00 0.00 56 1007.5
20260504180748 71 167 0.0 0.0 0.00 0.00 0.00 57 1007.2
20260504180248 71 92 0.0 0.0 0.00 0.00 0.00 58 1007.2
20260504175746 70 0 0.0 0.0 0.00 0.00 0.00 59 1007.2
20260504175246 70 273 0.0 0.0 0.00 0.00 0.00 61 1007.3
20260504174959 69 172 0.0 0.0 0.00 0.00 0.00 60 1007.2
20260504174232 69 195 0.0 0.0 0.00 0.00 0.00 60 1007.4
20260504173953 69 313 0.0 0.0 0.00 0.00 0.00 59 1007.7
20260504173220 69 146 0.0 0.0 0.00 0.00 0.00 62 1007.8
20260504172713 69 271 0.0 0.0 0.00 0.00 0.00 61 1007.4
20260504172655 69 184 0.0 0.0 0.00 0.00 0.00 60 1007.1
20260504171701 69 138 0.0 0.0 0.00 0.00 0.00 59 1007.4
20260504171156 68 202 0.0 0.0 0.00 0.00 0.00 61 1007.4
20260504170916 68 72 0.0 0.0 0.00 0.00 0.00 63 1007.5
20260504170144 68 93 0.0 0.0 0.00 0.00 0.00 61 1007.9
20260504150932 63 287 0.0 0.0 0.00 0.00 0.00 64 1008.6
20260504150425 63 179 0.0 0.0 0.00 0.00 0.00 64 1008.3
20260504141325 61 265 0.0 0.0 0.00 0.00 0.00 67 1008.8
20260504140819 60 180 0.0 0.0 0.00 0.00 0.00 68 1008.9
20260504140805 60 142 0.0 0.0 0.00 0.00 0.00 66 1008.9
20260504130708 56 156 0.0 0.0 0.00 0.00 0.00 71 1009.2
20260504130202 56 103 0.0 0.0 0.00 0.00 0.00 71 1009.2
20260504120125 53 9 0.0 0.0 0.00 0.00 0.00 71 1009.1
20260504110114 51 98 0.0 0.0 0.00 0.00 0.00 71 1009.0
20260504100552 50 194 0.0 0.0 0.00 0.00 0.00 70 1009.3
20260504081542 52 164 0.0 0.0 0.00 0.00 0.00 64 1009.9
20260504081041 52 203 0.0 0.0 0.00 0.00 0.00 64 1009.9
20260504080542 52 128 0.0 0.0 0.00 0.00 0.00 64 1009.9
20260504080308 52 169 0.0 0.0 0.00 0.00 0.00 63 1010.0
20260504050257 51 113 0.0 0.0 0.00 0.00 0.00 64 1011.5
20260504045751 51 98 0.0 0.0 0.00 0.00 0.00 64 1011.5
20260504045507 51 74 0.0 0.0 0.00 0.00 0.00 63 1011.6
20260504045006 52 73 0.0 0.0 0.00 0.00 0.00 63 1011.6
20260504044232 52 66 0.0 0.0 0.00 0.00 0.00 62 1011.7
20260504043727 52 65 0.0 0.0 0.00 0.00 0.00 62 1011.7
20260504043221 52 67 0.0 0.0 0.00 0.00 0.00 61 1011.6
20260504042715 53 0 0.0 0.0 0.00 0.00 0.00 60 1011.7
20260504042429 53 0 0.0 0.0 0.00 0.00 0.00 59 1011.7
20260504041703 53 67 0.0 0.0 0.00 0.00 0.00 59 1011.8
20260504041157 53 70 0.0 0.0 0.00 0.00 0.00 59 1011.9
20260504040651 53 153 0.0 0.0 0.00 0.00 0.00 59 1011.9
20260504040149 53 159 0.0 0.0 0.00 0.00 0.00 58 1012.1
20260504035635 54 175 0.0 0.0 0.00 0.00 0.00 58 1012.1
20260504035352 54 188 0.0 0.0 0.00 0.00 0.00 58 1012.2
20260504034623 54 123 0.0 0.0 0.00 0.00 0.00 57 1012.3
20260504034118 54 153 0.0 0.0 0.00 0.00 0.00 57 1012.3
20260504033611 54 184 0.0 0.0 0.00 0.00 0.00 57 1012.4
20260504033105 54 188 0.0 0.0 0.00 0.00 0.00 57 1012.4
20260504032559 55 173 0.0 0.0 0.00 0.00 0.00 57 1012.4
20260504032053 55 173 0.0 0.0 0.00 0.00 0.00 57 1012.4
20260504031547 55 77 0.0 0.0 0.00 0.00 0.00 56 1012.4
20260504031041 55 77 0.0 0.0 0.00 0.00 0.00 56 1012.4
20260504030535 55 112 0.0 0.0 0.00 0.00 0.00 55 1012.5
20260504030032 56 138 0.0 0.0 0.00 0.00 0.00 55 1012.6
20260504025755 56 138 0.0 0.0 0.00 0.00 0.00 54 1012.7
20260504025031 56 115 0.0 0.0 0.00 0.00 0.00 53 1012.7
20260504025007 56 152 0.0 0.0 0.00 0.00 0.00 52 1012.7
20260504024030 56 161 0.0 0.0 0.00 0.00 0.00 52 1012.7